Weather Roundup
Issued by NWS

Home | Current Version | Previous Version | Text Only | Print | Product List | Glossary On
Versions: 1 2 3 4 5 6 7 8 9 10 11 12 13 14 15 16 17 18 19 20 21 22 23 24 25 26 27 28 29 30 31 32 33 34 35 36 37 38 39 40 41 42 43 44 45 46 47 48 49 50
000
NZUS93 KARX 311010
HRRWXR

CURRENT HOURLY OBSERVATIONS ACROSS
MUCH OF THE UPPER MISSISSIPPI VALLEY
NATIONAL WEATHER SERVICE LA CROSSE WI
500 AM CDT FRI OCT 31 2014


...SOUTHEAST MINNESOTA...


CITY           SKY/WX    TMP DP  RH WIND       PRES   REMARKS
ROCHESTER      CLEAR     26  17  68 N15       30.38R WCI  14
ROCHESTER/MAYO FAIR      28  16  61 NW10G18   30.39R WCI  18
WINONA         CLEAR     32  21  64 NW14G21   30.37R WCI  22
AUSTIN         CLEAR     27  18  69 N13G22    30.39R WCI  16
ALBERT LEA     CLEAR     27  18  69 NW8G16    30.42R WCI  18
DODGE CENTER   CLEAR     27  19  74 N18       30.39R WCI  13
PRESTON        CLEAR     26  18  70 N18G25    30.35R WCI  13
OWATONNA       CLEAR     27  16  63 N14G22    30.43R WCI  15
FARIBAULT      CLEAR     28  18  64 N12G18    30.44R WCI  18
$$

...ELSEWHERE IN MINNESOTA...


CITY           SKY/WX    TMP DP  RH WIND       PRES   REMARKS
MINNEAPOLIS    CLEAR     28  16  60 N15       30.47R WCI  16
INTNL FALLS    PTCLDY    27  17  66 N8        30.53S WCI  19
DULUTH         CLOUDY    27  16  63 N16G25    30.46R WCI  15
RED WING       CLEAR     28  16  59 N12G17    30.42R WCI  18
REDWOOD FALLS  CLEAR     25  19  78 NW9       30.52R WCI  15
MANKATO        CLEAR     27  12  54 N8        30.47R WCI  18
WORTHINGTON    CLEAR     21  18  86 N12       30.49R WCI   9
FAIRMONT       CLEAR     27  16  63 N14       30.47R WCI  15
$$

...SOUTHWEST WISCONSIN...


CITY           SKY/WX    TMP DP  RH WIND       PRES   REMARKS
LA CROSSE      PTCLDY    33  20  58 N16       30.32R WCI  23
PRAIRIE DU CHI CLEAR     33  19  55 NW14G23   30.29R WCI  23
BOSCOBEL       PTCLDY    34  20  56 NW14G24   30.27R WCI  25
LONE ROCK      LGT SNOW  36  24  62 NW14G21   30.23R WCI  27
PLATTEVILLE    CLOUDY    33  20  59 NW20G26   30.22R WCI  22
FORT MC COY    CLOUDY    33  22  64 N15G26    30.29R WCI  22
CAMP DOUGLAS   MOCLDY    33  26  77 NW16G24   30.25R WCI  22
VIROQUA        CLOUDY    31  22  71 NW16G26   30.26R WCI  19
WIS DELLS      CLOUDY    32  28  84 N15G24    30.19R WCI  21
$$

...ELSEWHERE IN WISCONSIN...


CITY           SKY/WX    TMP DP  RH WIND       PRES   REMARKS
MILWAUKEE      CLOUDY    38  29  70 NW22G30   30.06R WCI  27
MADISON        LGT SNOW  32  29  88 NW10G23   30.16R FOG     WCI  24
GREEN BAY      CLOUDY    37  28  70 N22G37    30.12R WCI  26
EAU CLAIRE     MOCLDY    30  19  63 N9G18     30.36R WCI  22
BLACK RVR FLS  CLOUDY    33  20  60 N10G23    30.30R WCI  24
MEDFORD        CLOUDY    29  22  76 N17G29    30.26R WCI  17
WAUSAU         PTCLDY    30  23  75 N16G32    30.21R WCI  19
WIS RAPIDS     MOCLDY    32  24  72 N18G28    30.23R WCI  20
MARSHFIELD     CLOUDY    32  23  69 N16G31    30.24R WCI  21
RICE LAKE      CLEAR     29  20  69 N14G21    30.40R WCI  18
$$

...NORTHEAST IOWA...


CITY           SKY/WX    TMP DP  RH WIND       PRES   REMARKS
DECORAH        CLEAR     28  19  69 N14G25    30.31R WCI  17
MASON CITY     CLEAR     26  16  65 N15       30.42R WCI  14
CHARLES CITY   CLEAR     28  18  64 N16G24    30.37R WCI  17
OELWEIN        CLEAR     28  18  64 N15G28    30.33R WCI  17
$$

...ELSEWHERE IN IOWA...


CITY           SKY/WX    TMP DP  RH WIND       PRES   REMARKS
DES MOINES     PTCLDY    34  18  52 N21G35    30.40R WCI  22
IOWA CITY      CLEAR     34  16  47 N23G35    30.30R WCI  22
FORT DODGE     CLEAR     28  16  59 N9G16     30.45R WCI  20
$$

...NORTHERN ILLINOIS...


CITY           SKY/WX    TMP DP  RH WIND       PRES   REMARKS
CHICAGO-OHARE  CLOUDY    42  31  64 N15G22    30.04R
CHICAGO-MIDWAY LGT RAIN  44  35  70 NW22G30   30.03S
MOLINE         CLOUDY    41  25  53 NW25G37   30.18R
ROCKFORD       CLOUDY    38  24  57 N21G29    30.14R WCI  28
PEORIA         CLOUDY    44  36  73 N8G18     30.12R
$$

NOTE: "FAIR" INDICATES FEW OR NO CLOUDS BELOW 12,000 FEET WITH NO
SIGNIFICANT WEATHER AND/OR OBSTRUCTIONS TO VISIBILITY. WIND
SPEEDS ARE IN MILES-PER-HOUR.



USA.gov is the U.S. government's official web portal to all federal, state and local government web resources and services.